Regional Weather Roundup
Issued by NWS

Home | Current Version | Previous Version | Graphics & Text | Print | Product List | Glossary Off
Versions: 1 2 3 4 5 6 7 8 9 10 11 12 13 14 15 16 17 18 19 20 21 22 23 24 25 26 27 28 29 30 31 32 33 34 35 36 37 38 39 40 41 42 43 44 45 46 47 48 49 50

000
ASUS44 KFWD 200115
RWRTX
NORTH TEXAS HOURLY WEATHER ROUNDUP
NATIONAL WEATHER SERVICE FORT WORTH TX
700 PM CST MON FEB 19 2018

NOTE: "FAIR" INDICATES FEW OR NO CLOUDS BELOW 12,000 FEET WITH NO
SIGNIFICANT WEATHER AND/OR OBSTRUCTIONS TO VISIBILITY.

TXZ118-119-200200-
DALLAS/FORT WORTH METROPLEX

CITY           SKY/WX    TMP DP  RH WIND       PRES   REMARKS
DFW AIRPORT    CLOUDY    76  65  68 S21G29    29.78R
DALLAS LOVE    LGT RAIN  75  65  70 S18G25    29.80R
FTW MEACHAM    CLOUDY    76  64  66 S23G35    29.77R
DAL-EXECUTIVE  LGT RAIN  74  65  73 S17G29    29.81R
FTW-ALLIANCE   MOCLDY    75  63  66 S18G24    29.77R
FTW-NAS-JRB    CLOUDY    76  62  62 S17       29.78R
FTW-SPINKS     CLOUDY    73  64  73 SE12G22   29.82R
ARLINGTON      LGT RAIN  73  66  78 S18G29    29.79S
GRAND PRAIRIE  FAIR      74  63  68 S12G28    29.82R
MESQUITE       CLOUDY    73  63  68 SE20G29   29.83R
LANCASTER      CLOUDY    74  63  69 S18G30    29.83R
$$

TXZ091>094-102>105-117-120-121-131>134-200200-
NORTH CENTRAL TEXAS

CITY           SKY/WX    TMP DP  RH WIND       PRES   REMARKS
SHRMAN/DENISON FAIR      71  61  71 S16       29.80S
GAINESVILLE    MOCLDY    70  59  69 S12       29.79R
BOWIE          FAIR      73  59  63 S10G20    29.75S
BRIDGEPORT     FAIR      75  58  56 S12G23    29.78R
DECATUR        FAIR      73  60  63 S14G21    29.76S
DENTON         CLOUDY    75  63  66 S18G29    29.77R
MCKINNEY       LGT RAIN  72  65  78 S14       29.80R
BONHAM         MOCLDY    70  61  74 S12       29.82R
GREENVILLE     MOCLDY    73  61  64 S15       29.83R
ROCKWALL       CLOUDY    74  63  69 S15G22    29.82R
TERRELL        FAIR      74  60  61 S18       29.83R
WAXAHACHIE     LGT RAIN  72  64  75 S21G30    29.83R
CLEBURNE       CLOUDY    72  68  88 S20G26    29.81S
GRANBURY       CLOUDY    76  62  61 SE17      29.80R
$$

TXZ083>090-098>101-113>116-127>130-139>142-154-155-200200-
WESTERN NORTH TEXAS

CITY           SKY/WX    TMP DP  RH WIND       PRES   REMARKS
WICHITA FALLS  FAIR      72  58  61 S17       29.69S
WF-KICKAPOO    FAIR      73  59  60 S18G24    29.73R
VERNON         FAIR      74  52  45 S15       29.68F
ABILENE        FAIR      71  57  61 S12       29.75R
ABILENE-DYESS  CLOUDY    73  57  57 S13       29.74R
GRAHAM           N/A     74  58  58 SE12      29.71S
BRECKENRIDGE   FAIR      75  58  54 S13G20    29.74S
CISCO          MOCLDY    72  59  64 S15G23    29.77R
EASTLAND       MOCLDY    72  59  64 S15G21    29.77R
RANGER         FAIR      72  59  65 S15G22    29.77S
MINERAL WELLS  MOCLDY    75  59  57 S13       29.75R
STEPHENVILLE   FAIR      73  59  61 S9G18     29.82R
COMANCHE       MOCLDY    72  61  67 S9G20     29.80R
BROWNWOOD      CLOUDY    73  59  60 S10G16    29.79R
COLEMAN        FAIR      73  57  57 S16       29.78R
$$

TXZ143>147-156>162-174-175-200200-
CENTRAL TEXAS

CITY           SKY/WX    TMP DP  RH WIND       PRES   REMARKS
WACO           CLOUDY    72  61  68 S20       29.83R
WACO-TSTC      MOCLDY    73  63  68 S15G24    29.84R
WACO-MCGREGOR  CLOUDY    73  63  70 S23G29    29.84R
HILLSBORO      CLOUDY    73  64  73 S22G30    29.83R
CORSICANA      FAIR      74  59  59 S23G30    29.86R
MEXIA          MOCLDY    73  56  55 SE15G32   29.84R
HEARNE         MOCLDY    72  64  77 SE14G21   29.88R
CAMERON        CLOUDY    73  64  74 S15G21    29.87R
TEMPLE         CLOUDY    73  65  75 S25G33    29.84R
KILLEEN        MOCLDY    70  64  83 SE17      29.81F
KILLEEN-SKYLRK LGT RAIN  71  65  81 SE21      29.83F
FORT HOOD      MOCLDY    70  64  83 SE18G24   29.79S
GATESVILLE     MOCLDY    72  64  78 S16G26    29.83S
HAMILTON       CLOUDY    73  64  73 S6G23     29.83R
LAMPASAS       MOCLDY    72  64  78 S7        29.83R
$$

TXZ095>097-106>112-122>126-135>138-148>153-164>167-200200-
EAST TEXAS

CITY           SKY/WX    TMP DP  RH WIND       PRES   REMARKS
PARIS          CLOUDY    72  61  68 SE16G24   29.83F
SULPHUR SPRNGS FAIR      74  60  60 S14G22    29.85F
MOUNT PLEASANT FAIR      74  60  59 S14G23    29.89S
GILMER         CLOUDY    74  58  57 SE16G22   29.89F
MINEOLA        FAIR      75  61  60 SE10G17   29.84F
TYLER          FAIR      74  59  59 S18G26    29.87F
LONGVIEW       MOCLDY    74  59  59 S17G23    29.91S
MARSHALL       CLOUDY    73  54  52 S8G16     29.96R
ATHENS         FAIR      70  59  68 SE15G23   29.83F
PALESTINE      FAIR      73  62  68 SE16G23   29.89F
JACKSONVILLE   CLOUDY    73  60  64 S14G31    29.94S
HENDERSON      CLOUDY    73  59  59 S13G18    29.93F
CENTER         MOCLDY    73  57  58 SE10G16   29.98R
NACOGDOCHES    MOCLDY    74  61  63 S14G20    29.95S
LUFKIN         CLOUDY    73  64  73 S13       29.95S
$$

SUPPLEMENTAL OBSERVATIONS (NWS FORT WORTH AREA)

CITY           SKY/WX    TMP DP  RH WIND       PRES   REMARKS
DENISON DAM      N/A     73  63  68 SE13        N/A
CADDO GRASSLND   N/A     70  63  78 S8G16       N/A
PAT MAYSE LAKE   N/A     72  66  83 SE13        N/A
GREENVILLE       N/A    N/A N/A N/A S10G20      N/A
CEDAR HILL       N/A     73  64  73 SE14G25     N/A
LBJ GRASSLAND    N/A     73  59  60 SE10G20     N/A
POSSUM KINGDOM   N/A     72  57  60 S7G20       N/A
GRANBURY         N/A     75  63  64 SE16G23     N/A
COMANCHE         N/A     72  61  68 S13G21      N/A
MCGREGOR         N/A     72  63  73 S24G33      N/A
TEMPLE           N/A     73  64  73 S13G24      N/A
LAKE LIMESTONE   N/A    N/A N/A N/A S14G23      N/A
ATHENS           N/A    N/A N/A N/A SE22G28     N/A
$$

SUPPLEMENTAL OBSERVATIONS (NWS NORMAN AREA)

CITY           SKY/WX    TMP DP  RH WIND       PRES   REMARKS
GOODLETT         N/A     73  54  51 SE24      29.61F
ODELL            N/A     73  57  59 S17       29.68F
CROWELL          N/A     73  57  57 S16       29.68S
KNOX CITY        N/A     73  53  49 S18       29.69S
SEYMOUR          N/A     73  55  53 S12       29.70S
MILLERS CREEK    N/A     72  55  56 S12         N/A
$$

SUPPLEMENTAL OBSERVATIONS (NWS SAN ANGELO AREA)

CITY           SKY/WX    TMP DP  RH WIND       PRES   REMARKS
WEINERT          N/A     73  55  53 S15       29.71R
HASKELL          N/A     72  52  49 S9G15     29.71R
THROCKMORTON     N/A     74  58  58 S13       29.73S
STAMFORD         N/A     73  55  53 S13       29.73R
CLYDE            N/A     71  56  59 S12       29.78R
HAMBY            N/A     72  55  56 S14         N/A
IVIE RESERVOIR   N/A     73  57  56 SE14        N/A
COLORADO BEND    N/A     72  63  73 SE13        N/A
$$

SUPPLEMENTAL OBSERVATIONS (NWS SHREVEPORT AREA)

CITY           SKY/WX    TMP DP  RH WIND       PRES   REMARKS
CLARKSVILLE      N/A     72  59  64 SE12        N/A
TEXARKANA        N/A     73  52  46 SE6         N/A
LINDEN           N/A     73  52  46 SE7G17      N/A
CADDO LAKE       N/A     73  54  49 S3G12       N/A
GILMER           N/A     75  57  53 S17G24      N/A
HENDERSON        N/A     73  57  56 S13G23      N/A
LUFKIN           N/A     73  63  68 MISG        N/A
N SABINE NF      N/A     73  57  56 MISG        N/A
S SABINE NF      N/A     73  63  68 S6          N/A
$$

SUPPLEMENTAL OBSERVATIONS ARE A COLLECTION OF AUTOMATED INSTRUMENTS
THAT ARE MAINTAINED BY A VARIETY OF FEDERAL AND STATE AGENCIES.
CERTAIN ELEMENTS...SUCH AS HUMIDITY VALUES AND SUSTAINED WIND
SPEEDS...MAY BE APPROXIMATED.





USA.gov is the U.S. government's official web portal to all federal, state and local government web resources and services.